Time,TemperatureF,DewpointF,PressureIn,WindDirection,WindDirectionDegrees,WindSpeedMPH,WindSpeedGustMPH,Humidity,HourlyPrecipIn,Conditions,Clouds,dailyrainin,SoftwareType,DateUTC
2013-05-21 00:01:00,74.2,59.0,29.95,South,188,17.4,17.4,61,0.00,,,0.00,TxWx,2013-05-21 05:01:00,
2013-05-21 00:06:00,72.1,59.0,29.95,South,182,10.8,10.8,64,0.00,,,0.00,TxWx,2013-05-21 05:06:00,
2013-05-21 00:11:00,68.9,58.0,29.95,South,186,14.4,14.4,69,0.00,,,0.02,TxWx,2013-05-21 05:11:00,
2013-05-21 00:16:00,65.8,61.0,29.95,South,188,21.0,24.9,84,0.00,,,0.19,TxWx,2013-05-21 05:16:00,
2013-05-21 00:21:00,65.4,60.0,29.98,South,175,9.3,12.0,85,1.56,,,0.27,TxWx,2013-05-21 05:21:00,
2013-05-21 00:26:00,65.7,62.0,29.97,South,174,9.9,9.9,88,1.56,,,0.31,TxWx,2013-05-21 05:26:00,
2013-05-21 00:32:00,65.3,61.0,29.97,South,170,8.7,10.2,88,0.66,,,0.39,TxWx,2013-05-21 05:32:00,
2013-05-21 00:37:00,65.1,61.0,29.96,South,173,3.9,4.2,88,0.66,,,0.46,TxWx,2013-05-21 05:37:00,
2013-05-21 00:42:00,64.7,62.0,29.96,South,169,8.4,9.0,89,0.66,,,0.49,TxWx,2013-05-21 05:42:00,
2013-05-21 00:47:00,64.8,62.0,29.95,SSE,162,7.2,7.2,89,0.66,,,0.50,TxWx,2013-05-21 05:47:00,
2013-05-21 00:52:00,64.7,62.0,29.94,SSE,162,5.7,6.0,90,0.24,,,0.52,TxWx,2013-05-21 05:52:00,
2013-05-21 00:58:00,65.0,62.0,29.94,SSE,162,8.7,8.7,90,0.24,,,0.53,TxWx,2013-05-21 05:58:00,
2013-05-21 01:03:00,65.1,62.0,29.94,SSE,162,5.7,5.7,91,0.06,,,0.53,TxWx,2013-05-21 06:03:00,
2013-05-21 01:08:00,65.2,62.0,29.94,SSE,163,5.7,5.7,91,0.06,,,0.54,TxWx,2013-05-21 06:08:00,
2013-05-21 01:13:00,65.2,62.0,29.94,SSE,163,5.1,5.1,91,0.06,,,0.55,TxWx,2013-05-21 06:13:00,
2013-05-21 01:18:00,65.0,62.0,29.93,SSE,163,6.0,6.9,91,0.06,,,0.56,TxWx,2013-05-21 06:18:00,
2013-05-21 01:24:00,64.8,62.0,29.94,SSE,163,7.8,8.1,91,0.18,,,0.59,TxWx,2013-05-21 06:24:00,
2013-05-21 01:29:00,64.9,62.0,29.92,SSE,163,7.8,7.8,91,0.18,,,0.62,TxWx,2013-05-21 06:29:00,
2013-05-21 01:34:00,64.7,62.0,29.93,South,170,3.3,3.6,92,0.36,,,0.64,TxWx,2013-05-21 06:34:00,
2013-05-21 01:39:00,64.7,62.0,29.93,SSE,167,3.0,3.0,91,0.36,,,0.65,TxWx,2013-05-21 06:39:00,
2013-05-21 01:44:00,64.9,62.0,29.93,SSE,166,1.5,1.5,92,0.12,,,0.65,TxWx,2013-05-21 06:44:00,
2013-05-21 01:49:00,64.8,62.0,29.93,South,169,1.5,1.5,91,0.12,,,0.66,TxWx,2013-05-21 06:49:00,
2013-05-21 01:55:00,64.8,62.0,29.92,SSE,165,3.9,3.9,92,0.06,,,0.68,TxWx,2013-05-21 06:55:00,
2013-05-21 02:00:00,65.0,62.0,29.92,SSE,167,3.9,3.9,92,0.18,,,0.69,TxWx,2013-05-21 07:00:00,
2013-05-21 02:05:00,65.0,62.0,29.91,SSE,165,3.9,3.9,92,0.18,,,0.70,TxWx,2013-05-21 07:05:00,
2013-05-21 02:10:00,65.0,62.0,29.91,SSE,164,3.0,3.0,91,0.12,,,0.71,TxWx,2013-05-21 07:10:00,
2013-05-21 02:15:00,65.1,62.0,29.91,SSE,164,2.1,2.1,91,0.12,,,0.72,TxWx,2013-05-21 07:15:00,
2013-05-21 02:21:00,64.9,62.0,29.91,SSE,163,3.3,3.6,91,0.12,,,0.74,TxWx,2013-05-21 07:21:00,
2013-05-21 02:26:00,64.9,62.0,29.90,SSE,165,6.0,6.0,91,0.12,,,0.74,TxWx,2013-05-21 07:26:00,
2013-05-21 02:31:00,64.9,62.0,29.91,SSE,164,5.7,5.7,92,0.12,,,0.75,TxWx,2013-05-21 07:31:00,
2013-05-21 02:36:00,64.9,62.0,29.90,SSE,164,4.8,5.4,92,0.12,,,0.75,TxWx,2013-05-21 07:36:00,
2013-05-21 02:41:00,64.8,62.0,29.89,SSE,165,6.0,6.3,92,0.00,,,0.75,TxWx,2013-05-21 07:41:00,
2013-05-21 02:46:00,64.9,62.0,29.89,SSE,165,7.8,7.8,92,0.00,,,0.75,TxWx,2013-05-21 07:46:00,
2013-05-21 02:51:00,64.9,62.0,29.88,SSE,165,8.7,10.2,92,0.06,,,0.76,TxWx,2013-05-21 07:51:00,
2013-05-21 02:57:00,64.9,62.0,29.88,SSE,165,8.4,9.9,92,0.06,,,0.76,TxWx,2013-05-21 07:57:00,
2013-05-21 03:02:00,65.0,62.0,29.87,SSE,164,10.5,10.5,92,0.00,,,0.76,TxWx,2013-05-21 08:02:00,
2013-05-21 03:07:00,64.8,62.0,29.86,SSE,163,7.2,8.1,92,0.00,,,0.76,TxWx,2013-05-21 08:07:00,
2013-05-21 03:12:00,64.7,62.0,29.85,SSE,163,6.3,6.6,92,0.00,,,0.76,TxWx,2013-05-21 08:12:00,
2013-05-21 03:17:00,64.6,62.0,29.86,SSE,163,5.7,5.7,92,0.00,,,0.76,TxWx,2013-05-21 08:17:00,
2013-05-21 03:23:00,64.6,62.0,29.87,SSE,163,6.0,6.0,92,0.00,,,0.76,TxWx,2013-05-21 08:23:00,
2013-05-21 03:28:00,64.7,63.0,29.88,SSE,165,7.5,7.5,92,0.00,,,0.76,TxWx,2013-05-21 08:28:00,
2013-05-21 03:33:00,64.7,63.0,29.89,SSE,164,5.7,6.6,92,0.00,,,0.76,TxWx,2013-05-21 08:33:00,
2013-05-21 03:38:00,64.8,63.0,29.89,SSE,163,6.6,6.6,92,0.00,,,0.76,TxWx,2013-05-21 08:38:00,
2013-05-21 03:43:00,64.8,63.0,29.89,SSE,167,4.2,4.5,93,0.00,,,0.76,TxWx,2013-05-21 08:43:00,
2013-05-21 03:49:00,64.7,63.0,29.89,SSE,166,8.4,8.4,93,0.00,,,0.76,TxWx,2013-05-21 08:49:00,
2013-05-21 03:54:00,64.7,63.0,29.89,SSE,163,8.7,8.7,93,0.00,,,0.76,TxWx,2013-05-21 08:54:00,
2013-05-21 03:59:00,64.8,63.0,29.89,SSE,165,4.5,4.8,93,0.00,,,0.76,TxWx,2013-05-21 08:59:00,
2013-05-21 04:05:00,64.7,63.0,29.89,SSE,163,4.5,5.1,93,0.00,,,0.76,TxWx,2013-05-21 09:05:00,
2013-05-21 04:10:00,64.8,63.0,29.89,SSE,163,6.0,6.0,93,0.00,,,0.76,TxWx,2013-05-21 09:10:00,
2013-05-21 04:15:00,64.8,63.0,29.89,SSE,163,7.2,7.2,93,0.00,,,0.76,TxWx,2013-05-21 09:15:00,
2013-05-21 04:20:00,64.8,63.0,29.89,SSE,163,6.6,7.2,93,0.00,,,0.76,TxWx,2013-05-21 09:20:00,
2013-05-21 04:25:00,64.8,63.0,29.90,SSE,167,5.1,5.1,93,0.00,,,0.76,TxWx,2013-05-21 09:25:00,
2013-05-21 04:30:00,64.8,63.0,29.90,SSE,163,8.1,8.1,93,0.00,,,0.76,TxWx,2013-05-21 09:30:00,
2013-05-21 04:36:00,64.8,63.0,29.90,SSE,167,6.9,8.1,93,0.00,,,0.76,TxWx,2013-05-21 09:36:00,
2013-05-21 04:41:00,64.7,63.0,29.90,South,170,6.3,6.3,93,0.00,,,0.76,TxWx,2013-05-21 09:41:00,
2013-05-21 04:46:00,64.7,63.0,29.89,SSE,167,7.8,7.8,93,0.00,,,0.76,TxWx,2013-05-21 09:46:00,
2013-05-21 04:51:00,64.7,63.0,29.89,SSE,166,3.6,3.6,93,0.00,,,0.76,TxWx,2013-05-21 09:51:00,
2013-05-21 04:56:00,64.7,63.0,29.89,SSE,166,4.2,5.1,93,0.00,,,0.76,TxWx,2013-05-21 09:56:00,
2013-05-21 05:02:00,64.5,63.0,29.89,SSE,164,5.7,6.0,93,0.00,,,0.76,TxWx,2013-05-21 10:02:00,
2013-05-21 05:07:00,64.5,63.0,29.89,SSE,167,6.6,6.6,93,0.00,,,0.76,TxWx,2013-05-21 10:07:00,
2013-05-21 05:12:00,64.5,63.0,29.90,SSE,165,5.1,5.1,93,0.00,,,0.76,TxWx,2013-05-21 10:12:00,
2013-05-21 05:17:00,64.5,63.0,29.89,SSE,166,7.5,7.5,93,0.00,,,0.76,TxWx,2013-05-21 10:17:00,
2013-05-21 05:22:00,64.5,63.0,29.90,SSE,164,7.2,8.4,93,0.00,,,0.76,TxWx,2013-05-21 10:22:00,
2013-05-21 05:27:00,64.6,63.0,29.91,SSE,165,6.6,6.6,93,0.00,,,0.76,TxWx,2013-05-21 10:27:00,
2013-05-21 05:32:00,64.6,63.0,29.91,SSE,165,8.1,8.1,93,0.00,,,0.76,TxWx,2013-05-21 10:32:00,
2013-05-21 05:37:00,64.6,63.0,29.91,SSE,164,6.9,7.8,93,0.00,,,0.76,TxWx,2013-05-21 10:37:00,
2013-05-21 05:43:00,64.6,63.0,29.91,SSE,164,8.7,9.3,93,0.00,,,0.76,TxWx,2013-05-21 10:43:00,
2013-05-21 05:48:00,64.6,63.0,29.91,SSE,163,11.7,11.7,93,0.00,,,0.76,TxWx,2013-05-21 10:48:00,
2013-05-21 05:53:00,64.7,63.0,29.91,South,176,9.3,9.3,93,0.00,,,0.76,TxWx,2013-05-21 10:53:00,
2013-05-21 05:58:00,65.0,63.0,29.91,South,169,9.0,9.0,93,0.00,,,0.76,TxWx,2013-05-21 10:58:00,
2013-05-21 06:03:00,64.9,62.0,29.91,SSE,165,9.9,11.4,92,0.00,,,0.76,TxWx,2013-05-21 11:03:00,
2013-05-21 06:08:00,65.2,62.0,29.91,SSE,162,10.2,12.0,91,0.00,,,0.76,TxWx,2013-05-21 11:08:00,
2013-05-21 06:13:00,65.4,62.0,29.91,SSE,165,11.1,12.9,90,0.00,,,0.76,TxWx,2013-05-21 11:13:00,
2013-05-21 06:18:00,65.7,62.0,29.91,SSE,162,12.9,12.9,89,0.00,,,0.76,TxWx,2013-05-21 11:18:00,
2013-05-21 06:24:00,66.0,62.0,29.91,SSE,162,11.1,11.1,87,0.00,,,0.76,TxWx,2013-05-21 11:24:00,
2013-05-21 06:29:00,65.9,62.0,29.91,SSE,162,15.0,17.1,86,0.00,,,0.76,TxWx,2013-05-21 11:29:00,
2013-05-21 06:34:00,65.8,61.0,29.91,SSE,163,18.6,18.6,85,0.00,,,0.76,TxWx,2013-05-21 11:34:00,
2013-05-21 06:39:00,65.8,61.0,29.91,South,173,15.9,15.9,85,0.00,,,0.76,TxWx,2013-05-21 11:39:00,
2013-05-21 06:45:00,65.8,61.0,29.91,SSE,168,9.0,9.6,85,0.00,,,0.76,TxWx,2013-05-21 11:45:00,
2013-05-21 06:50:00,65.8,61.0,29.91,SSE,168,9.9,9.9,85,0.00,,,0.76,TxWx,2013-05-21 11:50:00,
2013-05-21 06:55:00,65.8,61.0,29.91,SSE,166,8.4,8.4,85,0.00,,,0.76,TxWx,2013-05-21 11:55:00,
2013-05-21 07:00:00,65.7,61.0,29.91,SSE,164,12.3,12.3,85,0.00,,,0.76,TxWx,2013-05-21 12:00:00,
2013-05-21 07:05:00,65.8,61.0,29.90,SSE,162,7.2,8.7,85,0.00,,,0.76,TxWx,2013-05-21 12:05:00,
2013-05-21 07:10:00,65.8,61.0,29.90,SSE,162,6.3,6.6,85,0.00,,,0.76,TxWx,2013-05-21 12:10:00,
2013-05-21 07:15:00,65.8,61.0,29.90,SSE,162,11.1,12.3,85,0.00,,,0.76,TxWx,2013-05-21 12:15:00,
2013-05-21 07:20:00,65.9,61.0,29.90,SSE,162,5.7,7.5,85,0.00,,,0.76,TxWx,2013-05-21 12:20:00,
2013-05-21 07:26:00,66.0,61.0,29.90,SSE,162,6.0,6.0,85,0.00,,,0.76,TxWx,2013-05-21 12:26:00,
2013-05-21 07:31:00,66.2,61.0,29.91,SSE,163,5.7,5.7,85,0.00,,,0.76,TxWx,2013-05-21 12:31:00,
2013-05-21 07:36:00,66.3,61.0,29.91,SSE,163,7.2,9.0,85,0.00,,,0.76,TxWx,2013-05-21 12:36:00,
2013-05-21 07:42:00,66.8,62.0,29.91,SSE,163,8.7,8.7,85,0.00,,,0.76,TxWx,2013-05-21 12:42:00,
2013-05-21 07:47:00,66.7,62.0,29.91,SSE,163,8.4,8.7,85,0.00,,,0.76,TxWx,2013-05-21 12:47:00,
2013-05-21 07:52:00,67.0,62.0,29.91,SSE,163,7.5,7.8,85,0.00,,,0.76,TxWx,2013-05-21 12:52:00,
2013-05-21 07:57:00,66.9,62.0,29.91,SSE,163,9.6,10.2,84,0.00,,,0.76,TxWx,2013-05-21 12:57:00,
2013-05-21 08:02:00,67.5,63.0,29.91,SSE,163,9.0,9.0,84,0.00,,,0.76,TxWx,2013-05-21 13:02:00,
2013-05-21 08:07:00,68.2,63.0,29.91,SSE,163,11.4,11.4,83,0.00,,,0.76,TxWx,2013-05-21 13:07:00,
2013-05-21 08:12:00,68.1,62.0,29.91,SSE,163,10.8,10.8,82,0.00,,,0.76,TxWx,2013-05-21 13:12:00,
2013-05-21 08:18:00,68.1,62.0,29.91,SSE,162,8.4,9.9,82,0.00,,,0.76,TxWx,2013-05-21 13:18:00,
2013-05-21 08:23:00,68.8,63.0,29.92,SSE,163,9.6,9.6,82,0.00,,,0.76,TxWx,2013-05-21 13:23:00,
2013-05-21 08:28:00,69.3,63.0,29.91,SSE,162,9.0,9.0,81,0.00,,,0.76,TxWx,2013-05-21 13:28:00,
2013-05-21 08:33:00,69.3,63.0,29.92,SSE,163,12.6,12.9,80,0.00,,,0.76,TxWx,2013-05-21 13:33:00,
2013-05-21 08:39:00,69.0,62.0,29.92,SSE,162,15.9,15.9,80,0.00,,,0.76,TxWx,2013-05-21 13:39:00,
2013-05-21 08:44:00,69.3,63.0,29.92,SSE,162,11.1,11.1,80,0.00,,,0.76,TxWx,2013-05-21 13:44:00,
2013-05-21 08:49:00,69.0,62.0,29.93,SSE,162,13.8,14.7,79,0.00,,,0.76,TxWx,2013-05-21 13:49:00,
2013-05-21 08:54:00,69.9,63.0,29.93,SSE,161,11.4,11.4,79,0.00,,,0.76,TxWx,2013-05-21 13:54:00,
2013-05-21 08:59:00,70.1,63.0,29.92,SSE,162,14.1,14.1,78,0.00,,,0.76,TxWx,2013-05-21 13:59:00,
2013-05-21 09:04:00,70.5,63.0,29.92,SSE,162,5.7,5.7,79,0.00,,,0.76,TxWx,2013-05-21 14:04:00,
2013-05-21 09:10:00,70.4,63.0,29.92,SSE,161,7.2,7.2,78,0.00,,,0.76,TxWx,2013-05-21 14:10:00,
2013-05-21 09:15:00,70.1,63.0,29.92,SSE,162,18.9,18.9,78,0.00,,,0.76,TxWx,2013-05-21 14:15:00,
2013-05-21 09:20:00,69.8,63.0,29.93,SSE,163,17.7,19.8,79,0.00,,,0.76,TxWx,2013-05-21 14:20:00,
2013-05-21 09:25:00,70.3,63.0,29.93,SSE,162,10.8,11.4,79,0.00,,,0.76,TxWx,2013-05-21 14:25:00,
2013-05-21 09:30:00,69.8,62.0,29.92,SSE,162,13.8,13.8,77,0.00,,,0.76,TxWx,2013-05-21 14:30:00,
2013-05-21 09:36:00,69.5,63.0,29.92,SSE,162,21.3,21.9,78,0.00,,,0.76,TxWx,2013-05-21 14:36:00,
2013-05-21 09:41:00,69.8,62.0,29.92,SSE,162,18.3,18.3,77,0.00,,,0.76,TxWx,2013-05-21 14:41:00,
2013-05-21 09:46:00,70.3,62.0,29.92,SSE,164,8.7,8.7,77,0.00,,,0.76,TxWx,2013-05-21 14:46:00,
2013-05-21 09:51:00,70.1,62.0,29.92,SSE,165,5.4,6.0,77,0.00,,,0.76,TxWx,2013-05-21 14:51:00,
2013-05-21 09:57:00,69.9,62.0,29.92,SSE,165,6.6,6.6,77,0.00,,,0.76,TxWx,2013-05-21 14:57:00,
2013-05-21 10:02:00,69.8,62.0,29.92,SSE,163,12.3,12.3,77,0.00,,,0.76,TxWx,2013-05-21 15:02:00,
2013-05-21 10:07:00,69.9,63.0,29.92,SSE,163,6.9,8.1,78,0.00,,,0.76,TxWx,2013-05-21 15:07:00,
2013-05-21 10:12:00,69.8,63.0,29.91,SSE,163,6.6,6.6,78,0.00,,,0.76,TxWx,2013-05-21 15:12:00,
2013-05-21 10:17:00,69.9,63.0,29.91,SSE,162,8.4,10.8,78,0.00,,,0.76,TxWx,2013-05-21 15:17:00,
2013-05-21 10:23:00,70.7,64.0,29.91,SSE,162,15.6,15.6,78,0.00,,,0.76,TxWx,2013-05-21 15:23:00,
2013-05-21 10:28:00,70.8,63.0,29.92,SSE,163,13.8,18.0,77,0.00,,,0.76,TxWx,2013-05-21 15:28:00,
2013-05-21 10:33:00,70.4,62.0,29.92,SSE,165,18.3,21.6,76,0.00,,,0.76,TxWx,2013-05-21 15:33:00,
2013-05-21 10:38:00,70.5,62.0,29.92,SSE,164,10.5,10.5,77,0.00,,,0.76,TxWx,2013-05-21 15:38:00,
2013-05-21 10:43:00,70.5,62.0,29.92,South,173,12.0,13.5,76,0.00,,,0.76,TxWx,2013-05-21 15:43:00,
2013-05-21 10:48:00,70.5,63.0,29.92,South,169,11.4,15.0,77,0.00,,,0.76,TxWx,2013-05-21 15:48:00,
2013-05-21 10:53:00,70.7,63.0,29.92,South,170,9.0,9.0,77,0.00,,,0.76,TxWx,2013-05-21 15:53:00,
2013-05-21 10:58:00,70.6,63.0,29.92,South,169,11.7,11.7,77,0.00,,,0.76,TxWx,2013-05-21 15:58:00,
2013-05-21 11:03:00,71.0,63.0,29.92,South,169,6.9,7.2,77,0.00,,,0.76,TxWx,2013-05-21 16:03:00,
2013-05-21 11:08:00,71.5,63.0,29.92,South,169,9.0,9.0,77,0.00,,,0.76,TxWx,2013-05-21 16:08:00,
2013-05-21 11:13:00,71.8,64.0,29.92,SSE,166,10.5,11.4,76,0.00,,,0.76,TxWx,2013-05-21 16:13:00,
2013-05-21 11:19:00,72.3,64.0,29.92,SSE,166,7.8,8.1,75,0.00,,,0.76,TxWx,2013-05-21 16:19:00,
2013-05-21 11:24:00,72.7,64.0,29.92,SSE,165,7.5,7.5,75,0.00,,,0.76,TxWx,2013-05-21 16:24:00,
2013-05-21 11:29:00,72.8,64.0,29.92,SSE,165,11.4,11.4,74,0.00,,,0.76,TxWx,2013-05-21 16:29:00,
2013-05-21 11:34:00,72.9,64.0,29.92,SSE,165,18.0,21.3,74,0.00,,,0.76,TxWx,2013-05-21 16:34:00,
2013-05-21 11:39:00,73.0,64.0,29.92,South,169,12.3,12.9,73,0.00,,,0.76,TxWx,2013-05-21 16:39:00,
2013-05-21 11:45:00,73.2,64.0,29.91,SSE,167,9.6,9.6,73,0.00,,,0.76,TxWx,2013-05-21 16:45:00,
2013-05-21 11:50:00,73.6,65.0,29.91,SSE,165,14.4,14.4,73,0.00,,,0.76,TxWx,2013-05-21 16:50:00,
2013-05-21 11:55:00,73.7,64.0,29.91,SSE,166,14.7,16.2,72,0.00,,,0.76,TxWx,2013-05-21 16:55:00,
2013-05-21 12:00:00,73.4,63.0,29.91,SSE,166,14.7,18.9,72,0.00,,,0.76,TxWx,2013-05-21 17:00:00,
2013-05-21 12:06:00,74.1,64.0,29.91,SSE,168,8.7,9.0,72,0.00,,,0.76,TxWx,2013-05-21 17:06:00,
2013-05-21 12:11:00,73.9,64.0,29.91,SSE,166,19.5,19.5,71,0.00,,,0.76,TxWx,2013-05-21 17:11:00,
2013-05-21 12:16:00,74.9,65.0,29.91,SSE,167,11.7,11.7,72,0.00,,,0.76,TxWx,2013-05-21 17:16:00,
2013-05-21 12:21:00,74.6,65.0,29.91,SSE,165,9.9,14.1,71,0.00,,,0.76,TxWx,2013-05-21 17:21:00,
2013-05-21 12:26:00,74.6,65.0,29.91,SSE,167,8.7,9.3,71,0.00,,,0.76,TxWx,2013-05-21 17:26:00,
2013-05-21 12:32:00,74.3,64.0,29.91,SSE,168,9.0,9.0,71,0.00,,,0.76,TxWx,2013-05-21 17:32:00,
2013-05-21 12:37:00,74.3,64.0,29.91,SSE,162,10.8,11.1,71,0.00,,,0.76,TxWx,2013-05-21 17:37:00,
2013-05-21 12:42:00,75.2,65.0,29.91,South,170,7.5,8.7,71,0.00,,,0.76,TxWx,2013-05-21 17:42:00,
2013-05-21 12:47:00,74.5,64.0,29.91,SSE,162,9.3,11.7,70,0.00,,,0.76,TxWx,2013-05-21 17:47:00,
2013-05-21 12:53:00,74.7,65.0,29.90,SSE,162,9.3,10.2,70,0.00,,,0.76,TxWx,2013-05-21 17:53:00,
2013-05-21 12:58:00,74.9,65.0,29.90,SSE,162,15.9,20.7,70,0.00,,,0.76,TxWx,2013-05-21 17:58:00,
2013-05-21 13:03:00,75.3,64.0,29.91,SSE,162,13.2,17.7,69,0.00,,,0.76,TxWx,2013-05-21 18:03:00,
2013-05-21 13:08:00,75.9,65.0,29.91,SSE,162,6.0,6.3,69,0.00,,,0.76,TxWx,2013-05-21 18:08:00,
2013-05-21 13:13:00,76.0,65.0,29.91,SSE,162,5.4,5.4,69,0.00,,,0.76,TxWx,2013-05-21 18:13:00,
2013-05-21 13:18:00,75.9,65.0,29.91,South,170,5.1,5.4,68,0.00,,,0.76,TxWx,2013-05-21 18:18:00,
2013-05-21 13:23:00,76.1,65.0,29.91,SSE,166,4.8,5.4,68,0.00,,,0.76,TxWx,2013-05-21 18:23:00,
2013-05-21 13:29:00,75.9,64.0,29.90,SSE,163,7.8,9.0,68,0.00,,,0.76,TxWx,2013-05-21 18:29:00,
2013-05-21 13:34:00,76.1,65.0,29.91,SSE,162,5.7,6.6,68,0.00,,,0.76,TxWx,2013-05-21 18:34:00,
2013-05-21 13:39:00,76.4,65.0,29.91,SSE,163,7.2,7.2,68,0.00,,,0.76,TxWx,2013-05-21 18:39:00,
2013-05-21 13:44:00,76.0,64.0,29.90,South,170,19.5,19.5,68,0.00,,,0.76,TxWx,2013-05-21 18:44:00,
2013-05-21 13:50:00,76.7,65.0,29.90,SSE,166,12.3,12.9,67,0.00,,,0.76,TxWx,2013-05-21 18:50:00,
2013-05-21 13:55:00,76.9,65.0,29.90,SSE,168,12.3,13.2,66,0.00,,,0.76,TxWx,2013-05-21 18:55:00,
2013-05-21 14:00:00,76.9,65.0,29.90,South,169,11.1,11.1,66,0.00,,,0.76,TxWx,2013-05-21 19:00:00,
2013-05-21 14:05:00,77.6,65.0,29.90,South,170,5.1,5.4,66,0.00,,,0.76,TxWx,2013-05-21 19:05:00,
2013-05-21 14:10:00,77.4,65.0,29.90,SSE,166,14.4,14.7,66,0.00,,,0.76,TxWx,2013-05-21 19:10:00,
2013-05-21 14:15:00,77.3,65.0,29.90,SSE,166,5.7,7.5,66,0.00,,,0.76,TxWx,2013-05-21 19:15:00,
2013-05-21 14:21:00,77.5,65.0,29.90,SSE,166,15.9,15.9,64,0.00,,,0.76,TxWx,2013-05-21 19:21:00,
2013-05-21 14:26:00,77.7,64.0,29.90,SSE,166,15.0,16.8,63,0.00,,,0.76,TxWx,2013-05-21 19:26:00,
2013-05-21 14:31:00,78.5,66.0,29.90,South,171,4.2,4.8,64,0.00,,,0.76,TxWx,2013-05-21 19:31:00,
2013-05-21 14:36:00,78.0,64.0,29.89,SSE,166,7.8,7.8,63,0.00,,,0.76,TxWx,2013-05-21 19:36:00,
2013-05-21 14:41:00,78.4,64.0,29.89,SSE,166,8.7,9.9,63,0.00,,,0.76,TxWx,2013-05-21 19:41:00,
2013-05-21 14:47:00,78.1,64.0,29.89,SSE,163,17.4,17.7,63,0.00,,,0.76,TxWx,2013-05-21 19:47:00,
2013-05-21 14:52:00,78.3,64.0,29.89,SSE,162,12.6,15.9,63,0.00,,,0.76,TxWx,2013-05-21 19:52:00,
2013-05-21 14:57:00,79.3,65.0,29.88,SSE,162,11.4,13.5,63,0.00,,,0.76,TxWx,2013-05-21 19:57:00,
2013-05-21 15:02:00,80.2,66.0,29.88,SSE,162,2.7,3.0,64,0.00,,,0.76,TxWx,2013-05-21 20:02:00,
2013-05-21 15:08:00,80.0,65.0,29.89,SSE,162,9.9,11.4,61,0.00,,,0.76,TxWx,2013-05-21 20:08:00,
2013-05-21 15:13:00,79.5,65.0,29.88,SSE,162,6.9,7.5,60,0.00,,,0.76,TxWx,2013-05-21 20:13:00,
2013-05-21 15:18:00,79.6,65.0,29.89,SSE,162,15.3,15.3,60,0.00,,,0.76,TxWx,2013-05-21 20:18:00,
2013-05-21 15:23:00,79.8,63.0,29.88,SSE,167,12.9,12.9,57,0.00,,,0.76,TxWx,2013-05-21 20:23:00,
2013-05-21 15:28:00,80.4,64.0,29.88,SSE,162,4.2,5.1,58,0.00,,,0.76,TxWx,2013-05-21 20:28:00,
2013-05-21 15:34:00,79.3,63.0,29.88,SSE,162,10.8,11.1,59,0.00,,,0.76,TxWx,2013-05-21 20:34:00,
2013-05-21 15:39:00,79.7,64.0,29.88,SSE,162,16.5,16.5,59,0.00,,,0.76,TxWx,2013-05-21 20:39:00,
2013-05-21 15:44:00,79.4,63.0,29.88,SSE,162,18.0,18.0,59,0.00,,,0.76,TxWx,2013-05-21 20:44:00,
2013-05-21 15:49:00,80.3,65.0,29.88,SSE,168,5.1,5.1,60,0.00,,,0.76,TxWx,2013-05-21 20:49:00,
2013-05-21 15:55:00,80.1,63.0,29.88,South,169,10.5,13.2,57,0.00,,,0.76,TxWx,2013-05-21 20:55:00,
2013-05-21 16:00:00,80.5,64.0,29.88,SSE,162,12.6,12.6,58,0.00,,,0.76,TxWx,2013-05-21 21:00:00,
2013-05-21 16:05:00,80.8,64.0,29.87,SSE,162,14.1,17.1,57,0.00,,,0.76,TxWx,2013-05-21 21:05:00,
2013-05-21 16:10:00,80.8,64.0,29.88,SSE,162,15.3,15.3,56,0.00,,,0.76,TxWx,2013-05-21 21:10:00,
2013-05-21 16:15:00,80.6,64.0,29.88,SSE,168,18.6,19.5,56,0.00,,,0.76,TxWx,2013-05-21 21:15:00,
2013-05-21 16:20:00,80.8,64.0,29.88,SSE,162,6.0,6.0,57,0.00,,,0.76,TxWx,2013-05-21 21:20:00,
2013-05-21 16:26:00,81.0,64.0,29.88,SSE,162,6.9,8.1,57,0.00,,,0.76,TxWx,2013-05-21 21:26:00,
2013-05-21 16:31:00,80.0,63.0,29.88,SSE,167,18.0,18.6,57,0.00,,,0.76,TxWx,2013-05-21 21:31:00,
2013-05-21 16:36:00,80.0,64.0,29.88,South,170,6.0,6.6,58,0.00,,,0.76,TxWx,2013-05-21 21:36:00,
2013-05-21 16:41:00,80.3,64.0,29.88,SSE,162,11.4,12.9,59,0.00,,,0.76,TxWx,2013-05-21 21:41:00,
2013-05-21 16:47:00,80.2,64.0,29.87,SSE,162,10.2,10.2,58,0.00,,,0.76,TxWx,2013-05-21 21:47:00,
2013-05-21 16:52:00,80.9,64.0,29.87,SSE,162,13.8,14.7,57,0.00,,,0.76,TxWx,2013-05-21 21:52:00,
2013-05-21 16:57:00,81.1,65.0,29.87,SSE,162,15.3,15.3,58,0.00,,,0.76,TxWx,2013-05-21 21:57:00,
2013-05-21 17:02:00,81.3,64.0,29.86,South,175,10.5,10.8,57,0.00,,,0.76,TxWx,2013-05-21 22:02:00,
2013-05-21 17:07:00,80.9,64.0,29.87,SSE,166,15.6,16.8,57,0.00,,,0.76,TxWx,2013-05-21 22:07:00,
2013-05-21 17:12:00,80.5,64.0,29.87,South,173,9.6,9.6,57,0.00,,,0.76,TxWx,2013-05-21 22:12:00,
2013-05-21 17:18:00,80.6,64.0,29.87,SSE,168,12.6,13.2,57,0.00,,,0.76,TxWx,2013-05-21 22:18:00,
2013-05-21 17:23:00,80.9,64.0,29.87,South,171,10.2,11.7,56,0.00,,,0.76,TxWx,2013-05-21 22:23:00,
2013-05-21 17:28:00,81.2,63.0,29.86,South,171,7.5,9.0,55,0.00,,,0.76,TxWx,2013-05-21 22:28:00,
2013-05-21 17:33:00,81.9,64.0,29.86,SSE,166,3.6,4.8,55,0.00,,,0.76,TxWx,2013-05-21 22:33:00,
2013-05-21 17:38:00,81.6,63.0,29.86,South,169,2.7,3.0,53,0.00,,,0.76,TxWx,2013-05-21 22:38:00,
2013-05-21 17:44:00,81.4,62.0,29.86,South,169,6.6,6.6,54,0.00,,,0.76,TxWx,2013-05-21 22:44:00,
2013-05-21 17:49:00,81.4,62.0,29.86,South,170,4.2,4.5,54,0.00,,,0.76,TxWx,2013-05-21 22:49:00,
2013-05-21 17:54:00,81.3,62.0,29.86,South,181,5.1,6.6,53,0.00,,,0.76,TxWx,2013-05-21 22:54:00,
2013-05-21 17:59:00,81.3,63.0,29.86,South,178,6.3,7.2,54,0.00,,,0.76,TxWx,2013-05-21 22:59:00,
2013-05-21 18:04:00,81.3,63.0,29.85,South,170,5.4,5.4,55,0.00,,,0.76,TxWx,2013-05-21 23:04:00,
2013-05-21 18:10:00,81.3,63.0,29.85,South,179,10.2,10.5,55,0.00,,,0.76,TxWx,2013-05-21 23:10:00,
2013-05-21 18:15:00,81.4,64.0,29.85,South,176,9.0,9.0,56,0.00,,,0.76,TxWx,2013-05-21 23:15:00,
2013-05-21 18:20:00,81.1,63.0,29.85,South,182,12.3,12.3,55,0.00,,,0.76,TxWx,2013-05-21 23:20:00,
2013-05-21 18:25:00,81.1,63.0,29.85,SSE,162,9.3,9.3,55,0.00,,,0.76,TxWx,2013-05-21 23:25:00,
2013-05-21 18:30:00,80.8,64.0,29.85,South,182,7.2,8.7,56,0.00,,,0.76,TxWx,2013-05-21 23:30:00,
2013-05-21 18:35:00,80.5,64.0,29.85,South,182,7.2,7.2,58,0.00,,,0.76,TxWx,2013-05-21 23:35:00,
2013-05-21 18:40:00,80.4,64.0,29.84,South,178,4.8,5.4,58,0.00,,,0.76,TxWx,2013-05-21 23:40:00,
2013-05-21 18:46:00,80.4,64.0,29.84,South,173,4.2,4.2,58,0.00,,,0.76,TxWx,2013-05-21 23:46:00,
2013-05-21 18:51:00,80.2,63.0,29.84,South,176,6.9,6.9,57,0.00,,,0.76,TxWx,2013-05-21 23:51:00,
2013-05-21 18:56:00,80.1,64.0,29.84,South,180,3.6,3.6,58,0.00,,,0.76,TxWx,2013-05-21 23:56:00,
2013-05-21 19:01:00,79.9,64.0,29.85,South,180,5.4,5.4,58,0.00,,,0.76,TxWx,2013-05-22 00:01:00,
2013-05-21 19:07:00,79.7,63.0,29.85,South,176,8.1,8.7,57,0.00,,,0.76,TxWx,2013-05-22 00:07:00,
2013-05-21 19:12:00,79.4,63.0,29.85,South,178,6.0,6.0,58,0.00,,,0.76,TxWx,2013-05-22 00:12:00,
2013-05-21 19:17:00,79.2,63.0,29.85,South,176,7.2,7.2,59,0.00,,,0.76,TxWx,2013-05-22 00:17:00,
2013-05-21 19:22:00,79.1,64.0,29.85,South,178,8.1,8.1,60,0.00,,,0.76,TxWx,2013-05-22 00:22:00,
2013-05-21 19:27:00,78.9,64.0,29.85,South,175,4.8,4.8,60,0.00,,,0.76,TxWx,2013-05-22 00:27:00,
2013-05-21 19:33:00,78.5,64.0,29.85,South,177,8.1,8.1,60,0.00,,,0.76,TxWx,2013-05-22 00:33:00,
2013-05-21 19:38:00,78.4,63.0,29.85,South,175,4.5,4.5,61,0.00,,,0.76,TxWx,2013-05-22 00:38:00,
2013-05-21 19:43:00,78.3,63.0,29.85,South,176,4.2,4.5,61,0.00,,,0.76,TxWx,2013-05-22 00:43:00,
2013-05-21 19:48:00,78.0,64.0,29.85,South,177,3.9,4.5,62,0.00,,,0.76,TxWx,2013-05-22 00:48:00,
2013-05-21 19:54:00,77.7,64.0,29.85,SSE,162,4.8,4.8,63,0.00,,,0.76,TxWx,2013-05-22 00:54:00,
2013-05-21 19:59:00,77.4,63.0,29.85,South,179,4.2,4.5,63,0.00,,,0.76,TxWx,2013-05-22 00:59:00,
2013-05-21 20:04:00,77.2,64.0,29.85,SSE,166,2.7,2.7,64,0.00,,,0.76,TxWx,2013-05-22 01:04:00,
2013-05-21 20:09:00,76.9,64.0,29.86,South,175,2.1,2.1,65,0.00,,,0.76,TxWx,2013-05-22 01:09:00,
2013-05-21 20:15:00,76.5,64.0,29.85,SSE,166,3.6,3.6,66,0.00,,,0.76,TxWx,2013-05-22 01:15:00,
2013-05-21 20:20:00,76.4,64.0,29.86,SSE,166,4.5,4.5,67,0.00,,,0.76,TxWx,2013-05-22 01:20:00,
2013-05-21 20:25:00,76.3,64.0,29.86,South,171,3.3,3.6,67,0.00,,,0.76,TxWx,2013-05-22 01:25:00,
2013-05-21 20:30:00,76.1,64.0,29.86,South,170,3.0,3.0,67,0.00,,,0.76,TxWx,2013-05-22 01:30:00,
2013-05-21 20:36:00,76.0,64.0,29.87,South,170,3.9,3.9,68,0.00,,,0.76,TxWx,2013-05-22 01:36:00,
2013-05-21 20:41:00,75.7,65.0,29.87,SSE,163,3.9,4.2,68,0.00,,,0.76,TxWx,2013-05-22 01:41:00,
2013-05-21 20:46:00,75.6,65.0,29.87,SSE,168,2.4,2.4,69,0.00,,,0.76,TxWx,2013-05-22 01:46:00,
2013-05-21 20:51:00,75.5,65.0,29.88,SSE,165,5.1,5.1,69,0.00,,,0.76,TxWx,2013-05-22 01:51:00,
2013-05-21 20:57:00,75.6,65.0,29.87,South,170,2.4,2.4,69,0.00,,,0.76,TxWx,2013-05-22 01:57:00,
2013-05-21 21:02:00,75.7,65.0,29.88,South,171,3.9,4.2,69,0.00,,,0.76,TxWx,2013-05-22 02:02:00,
2013-05-21 21:07:00,76.0,65.0,29.88,South,172,6.3,6.3,69,0.00,,,0.76,TxWx,2013-05-22 02:07:00,
2013-05-21 21:13:00,75.9,65.0,29.88,South,171,6.3,7.8,69,0.00,,,0.76,TxWx,2013-05-22 02:13:00,
2013-05-21 21:18:00,75.2,64.0,29.89,South,169,10.5,12.3,70,0.00,,,0.77,TxWx,2013-05-22 02:18:00,
2013-05-21 21:23:00,71.6,61.0,29.88,South,172,13.8,13.8,70,0.18,,,0.83,TxWx,2013-05-22 02:23:00,
2013-05-21 21:28:00,71.4,61.0,29.88,South,170,2.7,2.7,72,0.18,,,0.83,TxWx,2013-05-22 02:28:00,
2013-05-21 21:34:00,70.7,62.0,29.88,South,169,3.0,3.3,74,0.24,,,0.83,TxWx,2013-05-22 02:34:00,
2013-05-21 21:39:00,70.4,62.0,29.88,South,169,3.6,3.9,77,0.24,,,0.83,TxWx,2013-05-22 02:39:00,
2013-05-21 21:44:00,70.6,64.0,29.88,South,169,2.7,3.0,78,0.00,,,0.83,TxWx,2013-05-22 02:44:00,
2013-05-21 21:49:00,70.4,63.0,29.88,South,170,2.1,2.1,79,0.00,,,0.83,TxWx,2013-05-22 02:49:00,
2013-05-21 21:54:00,70.5,64.0,29.88,South,169,3.3,3.6,81,0.00,,,0.83,TxWx,2013-05-22 02:54:00,
2013-05-21 21:59:00,70.8,65.0,29.88,SSE,168,5.4,5.4,82,0.00,,,0.83,TxWx,2013-05-22 02:59:00,
2013-05-21 22:04:00,71.5,65.0,29.88,SSE,168,5.4,5.7,82,0.00,,,0.83,TxWx,2013-05-22 03:04:00,
2013-05-21 22:10:00,72.0,66.0,29.88,SSE,168,3.9,3.9,81,0.00,,,0.83,TxWx,2013-05-22 03:10:00,
2013-05-21 22:15:00,72.1,65.0,29.88,SSE,165,3.9,3.9,80,0.00,,,0.83,TxWx,2013-05-22 03:15:00,
2013-05-21 22:20:00,72.3,65.0,29.88,SSE,165,4.5,4.8,80,0.00,,,0.83,TxWx,2013-05-22 03:20:00,
2013-05-21 22:25:00,72.4,65.0,29.88,SSE,165,6.0,6.0,79,0.00,,,0.83,TxWx,2013-05-22 03:25:00,
2013-05-21 22:30:00,72.4,65.0,29.88,SSE,164,3.9,4.8,79,0.00,,,0.83,TxWx,2013-05-22 03:30:00,
2013-05-21 22:35:00,72.0,65.0,29.87,SSE,164,3.3,3.9,80,0.00,,,0.83,TxWx,2013-05-22 03:35:00,
2013-05-21 22:40:00,71.7,66.0,29.87,SSE,164,3.0,3.6,81,0.00,,,0.83,TxWx,2013-05-22 03:40:00,
2013-05-21 22:46:00,71.7,66.0,29.87,SSE,163,3.3,3.3,81,0.00,,,0.83,TxWx,2013-05-22 03:46:00,
2013-05-21 22:51:00,71.7,66.0,29.87,SSE,164,4.8,5.4,82,0.00,,,0.83,TxWx,2013-05-22 03:51:00,
2013-05-21 22:56:00,71.7,66.0,29.87,SSE,161,3.0,3.0,81,0.00,,,0.83,TxWx,2013-05-22 03:56:00,
2013-05-21 23:01:00,71.6,66.0,29.87,SSE,163,5.7,5.7,81,0.00,,,0.83,TxWx,2013-05-22 04:01:00,
2013-05-21 23:02:00,71.5,65.0,29.87,SSE,162,6.0,6.6,81,0.00,,,0.83,TxWx,2013-05-22 04:02:00,
2013-05-21 23:03:00,71.4,65.0,29.86,SSE,162,6.9,6.9,81,0.00,,,0.83,TxWx,2013-05-22 04:03:00,
2013-05-21 23:08:00,71.4,65.0,29.87,SSE,162,6.9,6.9,82,0.00,,,0.83,TxWx,2013-05-22 04:08:00,
2013-05-21 23:14:00,71.5,65.0,29.87,SSE,162,5.1,5.1,81,0.00,,,0.83,TxWx,2013-05-22 04:14:00,
2013-05-21 23:19:00,71.6,66.0,29.87,SSE,163,7.2,8.7,81,0.00,,,0.83,TxWx,2013-05-22 04:19:00,
2013-05-21 23:24:00,72.5,65.0,29.87,SSE,162,6.3,6.3,80,0.00,,,0.83,TxWx,2013-05-22 04:24:00,
2013-05-21 23:29:00,72.4,65.0,29.87,SSE,162,7.2,8.7,78,0.00,,,0.83,TxWx,2013-05-22 04:29:00,
2013-05-21 23:35:00,72.4,65.0,29.86,SSE,161,4.8,4.8,78,0.00,,,0.83,TxWx,2013-05-22 04:35:00,
2013-05-21 23:40:00,72.4,65.0,29.87,SSE,163,9.6,9.6,78,0.00,,,0.83,TxWx,2013-05-22 04:40:00,
2013-05-21 23:45:00,72.3,64.0,29.86,SSE,162,6.9,7.5,77,0.00,,,0.83,TxWx,2013-05-22 04:45:00,
2013-05-21 23:50:00,72.3,64.0,29.86,SSE,162,6.6,7.8,77,0.00,,,0.83,TxWx,2013-05-22 04:50:00,
2013-05-21 23:56:00,72.3,64.0,29.86,SSE,161,10.5,10.5,77,0.00,,,0.83,TxWx,2013-05-22 04:56:00,